Weather Roundup
Issued by NWS

Home | Current Version | Previous Version | Graphics & Text | Print | Product List | Glossary Off
Versions: 1 2 3 4 5 6 7 8 9 10 11 12 13 14 15 16 17 18 19 20 21 22 23 24 25 26 27 28 29 30 31 32 33 34 35 36 37 38 39 40 41 42 43 44 45 46 47 48 49 50

000
NZUS93 KARX 291610
HRRWXR

CURRENT HOURLY OBSERVATIONS ACROSS
MUCH OF THE UPPER MISSISSIPPI VALLEY
NATIONAL WEATHER SERVICE LA CROSSE WI
1100 AM CDT TUE JUL 29 2014


...SOUTHEAST MINNESOTA...


CITY           SKY/WX    TMP DP  RH WIND       PRES   REMARKS
ROCHESTER      SUNNY     73  58  59 NW8       30.15S
ROCHESTER/MAYO FAIR      70  54  55 NW6       30.14S
WINONA         SUNNY     73  59  60 NW7       30.10F
AUSTIN         SUNNY     72  57  60 NW7       30.15S
ALBERT LEA     MOSUNNY   72  55  56 NW7       30.16S
DODGE CENTER   SUNNY     70  61  73 NW7       30.15R
PRESTON        SUNNY     70  63  79 NW7       30.14S
OWATONNA       SUNNY     72  57  60 NW7       30.15S
FARIBAULT      SUNNY     75  55  50 W6        30.15S
$$

...ELSEWHERE IN MINNESOTA...


CITY           SKY/WX    TMP DP  RH WIND       PRES   REMARKS
MINNEAPOLIS    SUNNY     75  56  51 NW8       30.12F
INTNL FALLS    SUNNY     72  57  59 NW13      30.07F
DULUTH         MOSUNNY   74  56  53 NW9       30.06F
RED WING       SUNNY     75  59  57 NW6       30.10F
REDWOOD FALLS  SUNNY     72  56  57 N10       30.18S
MANKATO        SUNNY     70  55  60 NW8       30.16F
WORTHINGTON    MOSUNNY   68  54  60 NW8       30.23S
FAIRMONT       SUNNY     72  55  56 N7        30.19S
$$

...SOUTHWEST WISCONSIN...


CITY           SKY/WX    TMP DP  RH WIND       PRES   REMARKS
LA CROSSE      SUNNY     73  58  59 W7        30.09F
PRAIRIE DU CHI SUNNY     73  56  54 W5        30.09F
BOSCOBEL       SUNNY     77  58  51 NW7       30.09S
LONE ROCK      SUNNY     76  59  55 NW9       30.08S
PLATTEVILLE    SUNNY     73  58  60 NW9       30.10S
FORT MC COY    SUNNY     73  54  52 W7        30.09F
CAMP DOUGLAS   SUNNY     72  59  64 NW8       30.05F
VIROQUA        FAIR      71  57  60 NW6       30.10S
WIS DELLS      SUNNY     73  53  49 N7        30.07S
$$

...ELSEWHERE IN WISCONSIN...


CITY           SKY/WX    TMP DP  RH WIND       PRES   REMARKS
MILWAUKEE      MOSUNNY   72  55  55 NW9       30.03S
MADISON        MOSUNNY   74  57  55 N8        30.06F
GREEN BAY      PTSUNNY   72  57  59 VRB6      30.01F
EAU CLAIRE     SUNNY     73  57  57 W9        30.08F
BLACK RVR FLS  FAIR      73  53  48 NW8       30.08S
MEDFORD        PTSUNNY   67  55  66 NW8       30.08S
WAUSAU         MOSUNNY   70  55  59 NW9       30.05S
WIS RAPIDS     SUNNY     73  53  49 W8        30.07S
MARSHFIELD     MOSUNNY   73  54  51 NW13      30.07S
RICE LAKE      NOT AVBL
$$

...NORTHEAST IOWA...


CITY           SKY/WX    TMP DP  RH WIND       PRES   REMARKS
WATERLOO       SUNNY     73  60  63 NW7       30.14R
DUBUQUE        SUNNY     72  59  63 NW8       30.11S
DECORAH        SUNNY     72  59  64 NW9       30.12S
MASON CITY     SUNNY     72  59  63 NW9       30.18S
CHARLES CITY   SUNNY     72  59  64 NW8       30.15F
OELWEIN        SUNNY     72  59  64 NW10      30.14S
$$

...ELSEWHERE IN IOWA...


CITY           SKY/WX    TMP DP  RH WIND       PRES   REMARKS
DES MOINES     MOSUNNY   76  56  49 NW9       30.17S
IOWA CITY      SUNNY     73  59  61 NW7       30.14S
FORT DODGE     SUNNY     72  59  64 NW6       30.20S
MARSHALLTOWN   SUNNY     72  61  68 W6        30.16S
CEDAR RAPIDS   SUNNY     72  50  45 W7        30.13S
$$

...NORTHERN ILLINOIS...


CITY           SKY/WX    TMP DP  RH WIND       PRES   REMARKS
CHICAGO-OHARE  MOSUNNY   74  53  48 NW12      30.04S
DUPAGE         SUNNY     75  55  49 NW10      30.05S
CHICAGO-MIDWAY MOSUNNY   75  55  49 W13       30.04S
MOLINE         SUNNY     74  58  57 W6        30.11S
ROCKFORD       SUNNY     74  56  53 NW9       30.08F
STERLING       SUNNY     75  59  57 NW8       30.10S
PEORIA         SUNNY     75  55  49 VRB7      30.12S
$$

NOTE: "FAIR" INDICATES FEW OR NO CLOUDS BELOW 12,000 FEET WITH NO
SIGNIFICANT WEATHER AND/OR OBSTRUCTIONS TO VISIBILITY. WIND
SPEEDS ARE IN MILES-PER-HOUR.



USA.gov is the U.S. government's official web portal to all federal, state and local government web resources and services.